Content
SEND FEEDBACK

Daily
Averages
Monthly
Summary
United States of America

CAMP QUEZON, GUAM


Home > North America > United States > Guam
Elevation: 269 feet     Latitude: 13 28N     Longitude: 144 48E

WEATHER
 
SELECT A DAY
Number of Records: 209,340;   Date Range: 1/1/95 - 9/20/14
 
SHARE

PRINT THIS DATA

[ ← Previous Day ]
WEATHER ALMANAC - MARCH 26, 2013
[ Next Day → ]
[ °C ]   °F
Weather ElementAverageHighLow
Temperature82.1 °F88 °F (2:54 pm)78.8 °F (8:26 am)
Dewpoint73.6 °F75.2 °F (8:39 am)72 °F (12:54 pm)
Humidity75.8 %89 % (8:39 am)61 % (2:54 pm)
Barometer29.88 in29.93 in (9:07 am)29.80 in (2:54 pm)
Wind Speed14.9 mph23 mph (2:54 pm)
Wind Gust31.1 mph (2:54 pm)
Weather ElementAverage
Visibility9 mi
Wind DirectionENE (78.8 °)

Weather ElementTotal
Precipitation0.41 in
Cooling Degree Days18.4 (Base 65)
Growing Degree Days33.4 (Base 50)
Averaged from 33 records on March 26, 2013
WEATHER CONDITIONS BREAKOUT
WIND DIRECTION BREAKOUT
WEATHER BY HOUR - MARCH 26, 2013
[ °C ]   °F
Local TimeTemperatureDewpointHumidityBarometerVisibilityWind DirectionWind SpeedGust SpeedPrecipitationEventsConditions
1:54 AM81.0 °F73.0 °F77 %29.86 in10.0 miENE (60°)9.2 mphClear
2:54 AM81.0 °F73.0 °F77 %29.84 in10.0 miENE (60°)9.2 mphPartly Cloudy
3:54 AM80.1 °F73.9 °F81 %29.84 in10.0 miENE (60°)12.7 mphClear
4:54 AM80.1 °F73.0 °F79 %29.84 in10.0 miEast (80°)12.7 mph0.00 inOvercast
5:54 AM80.1 °F73.0 °F79 %29.86 in10.0 miEast (80°)13.8 mphMostly Cloudy
6:54 AM80.1 °F73.0 °F79 %29.87 in10.0 miENE (70°)11.5 mphMostly Cloudy
7:50 AM80.6 °F73.4 °F79 %29.90 in10.0 miENE (60°)10.4 mphOvercast
7:54 AM81.0 °F73.9 °F79 %29.88 in7.0 miENE (70°)19.6 mph27.6 mphOvercast
8:04 AM80.6 °F73.4 °F79 %29.91 in8.0 miENE (60°)12.7 mph21.9 mph0.00 inOvercast
8:26 AM78.8 °F73.4 °F83 %29.92 in1.8 miEast (90°)13.8 mph23.0 mph0.04 inRainHeavy Rain
8:33 AM78.8 °F73.4 °F83 %29.92 in1.2 miEast (90°)11.5 mph21.9 mph0.11 inRainHeavy Rain
8:39 AM78.8 °F75.2 °F89 %29.92 in3.0 miEast (100°)12.7 mph0.13 inRainLight Rain
8:54 AM79.0 °F75.0 °F88 %29.90 in10.0 miEast (80°)13.8 mph0.13 inOvercast
9:07 AM80.6 °F75.2 °F84 %29.93 in10.0 miEast (90°)15.0 mph21.9 mphMostly Cloudy
9:10 AM80.6 °F75.2 °F84 %29.93 in10.0 miEast (100°)13.8 mphMostly Cloudy
9:18 AM80.6 °F75.2 °F84 %29.93 in10.0 miEast (90°)12.7 mph23.0 mphOvercast
9:27 AM80.6 °F73.4 °F79 %29.93 in8.0 miEast (80°)16.1 mph21.9 mph0.00 inRainLight Rain
9:37 AM80.6 °F73.4 °F79 %29.92 in9.0 miEast (90°)16.1 mph0.00 inRainLight Rain
9:54 AM82.9 °F73.9 °F74 %29.90 in10.0 miEast (80°)17.3 mph0.00 inMostly Cloudy
10:54 AM84.0 °F73.9 °F72 %29.90 in10.0 miEast (80°)20.7 mph26.5 mphMostly Cloudy
11:54 AM86.0 °F73.0 °F65 %29.87 in10.0 miEast (90°)18.4 mph26.5 mph0.00 inScattered Clouds
12:54 PM86.0 °F72.0 °F63 %29.84 in10.0 miEast (80°)19.6 mph28.8 mphClear
1:54 PM87.1 °F73.9 °F65 %29.82 in10.0 miEast (80°)21.9 mph28.8 mphMostly Cloudy
2:54 PM88.0 °F73.0 °F61 %29.80 in10.0 miENE (70°)23.0 mph31.1 mphScattered Clouds
3:54 PM87.1 °F72.0 °F61 %29.81 in10.0 miENE (70°)18.4 mph27.6 mphPartly Cloudy
4:54 PM87.1 °F73.0 °F63 %29.82 in10.0 miEast (80°)15.0 mph26.5 mphPartly Cloudy
5:54 PM84.0 °F73.0 °F69 %29.83 in10.0 miEast (80°)15.0 mph21.9 mphScattered Clouds
6:54 PM82.9 °F73.9 °F74 %29.85 in10.0 miEast (90°)12.7 mphClear
7:54 PM82.9 °F73.0 °F72 %29.87 in10.0 miEast (90°)16.1 mph23.0 mphClear
8:54 PM82.9 °F73.9 °F74 %29.89 in10.0 miEast (80°)15.0 mphPartly Cloudy
9:54 PM82.0 °F73.9 °F76 %29.90 in10.0 miENE (70°)13.8 mphMostly Cloudy
10:54 PM82.0 °F73.9 °F76 %29.90 in10.0 miEast (80°)12.7 mph23.0 mphScattered Clouds
11:54 PM82.0 °F73.9 °F76 %29.88 in10.0 miENE (70°)16.1 mphClear
Hourly data recorded from PGUM, located miles away from Camp Quezon, Guam







STORIES FROM OUR PARTNERS